Regional Weather Roundup
Issued by NWS Sterling, VA

Home | Current Version | Previous Version | Graphics & Text | Print | Product List | Glossary On
Versions: 1 2 3 4 5 6 7 8 9 10 11 12 13 14 15 16 17 18 19 20 21 22 23 24 25 26 27 28 29 30 31 32 33 34 35 36 37 38 39 40 41 42 43 44 45 46 47 48 49 50
687
ASUS41 KLWX 200911
RWRLWX

REGIONAL WEATHER ROUNDUP
NATIONAL WEATHER SERVICE BALTIMORE MD/WASHINGTON DC
500 AM EDT THU JUL 20 2017

Note: "FAIR" indicates few or no clouds below 12,000 feet
with no significant weather and/or obstructions to visibility.
 TC=TEMPERATURE CELSIUS

 * =Non NWS site. Station does not report precipitation (e.g. rain,
    snow, etc.), thunder, or fog.

DCZ001-MDZ009-015-VAZ040>042-051-053>054-201000-
WASHINGTON METRO

CITY           SKY/WX    TMP DP  RH WIND       PRES   REMARKS
WASHINGTON NAT CLEAR     80  74  81 SW6       30.00S
DULLES         MOCLDY    72  71  97 CALM      30.01S
ANDREWS AFB    CLEAR     75  70  86 SW6       30.00S
FT BELVOIR     CLEAR     73  72  95 CALM      30.00S
QUANTICO       CLEAR     78  72  81 W3        30.01S
COLLEGE PARK*  CLEAR     74  73  95 CALM      29.99S
LEESBURG*      CLEAR     75  73  94 CALM      30.02S
MANASSAS*      CLEAR     72  71  97 CALM      30.01S
GAITHERSBURG*  CLEAR     72  71  97 CALM      30.02F

$$

MDZ006>007-011-014-201000-
BALTIMORE METRO

CITY           SKY/WX    TMP DP  RH WIND       PRES   REMARKS
BWI AIRPORT    MOCLDY    75  74  96 CALM      29.99F
MD SCIENCE CTR   N/A     82  74  76 MISG      29.99F
MARTIN STATE   CLEAR     79  75  89 S3        30.00R
ANNAPOLIS      CLEAR     77  77 100 NE3       29.98F
FORT MEADE*    CLEAR     70  68  94 CALM      30.02S

$$

MDZ012-015-019>023-201000-
MARYLAND EASTERN SHORE

CITY           SKY/WX    TMP DP  RH WIND       PRES   REMARKS
OCEAN CITY     CLEAR     76  75  97 W5        30.01S
SALISBURY      NOT AVBL
BAY BRIDGE AP* CLEAR     79  73  83 CALM      29.99F
CAMBRIDGE*     CLEAR     75  73  94 CALM      30.00S
EASTON*        CLEAR     80  72  76 CALM      30.04S

$$

MDZ017>025-201000-
SOUTHERN MARYLAND

CITY           SKY/WX    TMP DP  RH WIND       PRES   REMARKS
PATUXENT RIVER CLEAR     77  72  84 SW8       30.00S
ST INIGOES     CLEAR     77  72  84 SW5       30.00F
LEONARDTOWN*   CLEAR    N/A N/A N/A CALM      30.03S

$$

MDZ003>005-201000-
NORTH CENTRAL MARYLAND

CITY           SKY/WX    TMP DP  RH WIND       PRES   REMARKS
FREDERICK*     NOT AVBL
HAGERSTOWN APT CLEAR     75  70  84 SE5       30.02S
WESTMINSTER*   CLEAR     75  70  83 CALM      30.02S

$$

MDZ501>502-201000-
WESTERN MARYLAND

CITY           SKY/WX    TMP DP  RH WIND       PRES   REMARKS
OAKLAND*       CLEAR     64  64 100 SW3       30.13F
CUMBERLAND*    CLEAR     70  70 100 CALM      30.08F

$$

VAZ025>031-201000-
SHENANDOAH VALLEY

CITY           SKY/WX    TMP DP  RH WIND       PRES   REMARKS
WINCHESTER*    CLEAR     68  64  88 CALM      30.03F
FRONT ROYAL*   PTCLDY    72  68  88 S5        30.03F
LURAY*         PTCLDY    70  68  94 CALM      30.06S
NEW MARKET*    CLEAR     68  65  92 W3        30.07S
STAUNTON*      CLEAR     65  64  96 CALM      30.11S FOG
WAYNESBORO*    CLEAR     68  67  98 CALM      30.10S

$$

WVZ021-048>050-054>055-201000-
EASTERN WEST VIRGINIA PANHANDLE

CITY           SKY/WX    TMP DP  RH WIND       PRES   REMARKS
MARTINSBURG    PTCLDY    70  67  90 CALM      30.01F FOG
PETERSBURG*    CLEAR     66  65  98 CALM      30.09S FOG

$$

VAZ036>039-050-201000-
CENTRAL FOOTHILLS

CITY           SKY/WX    TMP DP  RH WIND       PRES   REMARKS
CHARLOTTESVILL CLEAR     74  70  87 W3        30.03F FOG
CULPEPER*      FOG       70  70  99 CALM      30.02F VSB 3/4
ORANGE*        CLEAR     68  68 100 CALM      30.03S
GORDONSVILLE*  CLEAR     69  69 100 CALM      30.03S
WARRENTON*     FOG       72  69  90 CALM      30.01S VSB 3/4

$$

VAZ055>057-201000-
NORTH AND CENTRAL PIEDMONT

CITY           SKY/WX    TMP DP  RH WIND       PRES   REMARKS
FREDERICKSBRG* CLEAR     73  73 100 CALM      30.01R
STAFFORD*      CLEAR     70  70 100 CALM      30.05S FOG

$$

NCZ024-NYZ072-PAZ021-071-VAZ022-071-201000-
OTHER REGIONAL OBSERVATIONS

CITY           SKY/WX    TMP DP  RH WIND       PRES   REMARKS
NEW YORK CITY  CLEAR     79  70  74 CALM      29.99S
PHILADELPHIA   PTCLDY    79  74  84 S5        29.98S
PITTSBURGH     PTCLDY    72  69  90 W3        30.04F
ROANOKE        CLEAR     70  65  84 CALM      30.11S
RICHMOND       CLEAR     74  70  87 S3        30.03R
RALEIGH        CLEAR     73  71  93 CALM      30.06S

$$

ANZ530>537-201000-
MARINE OBSERVATIONS

STATION/POSITION TIME  TEMP    WIND        PRES
                       AIR SEA DIR/SP/G
                 (UTC) (F)     (DEG/KT/KT) (MB)
THOMAS PT LIGHT  0900   81 82  310/  1/  2   N/A
BALT KEY BRIDGE  0848   81     210/  3/  3 1015.3F
COVE POINT       0848   80     270/ 14/ 16 1016.2F
LEWISETTA        0848   79 86  250/  7/  9 1016.1F
SOLOMONS ISLAND  0848          260/  3/  4   N/A
PINEY POINT      0848          270/  3/  4   N/A

$$





USA.gov is the U.S. government's official web portal to all federal, state and local government web resources and services.